Weather History for Erzurum, Turkey

Change the Weather History Date:

Friday, January 11, 2013

  Actual Average Record
Temperature  
Mean Temperature -12 °F -  
Max Temperature -2 °F 26 °F 39 °F (1999)
Min Temperature -23 °F 12 °F -25 °F (2009)
Degree Days  
Heating Degree Days 78    
Moisture  
Dew Point -16 °F    
Average Humidity 85    
Maximum Humidity 100    
Minimum Humidity 76    
Precipitation  
Precipitation 0.00 in 0.03 in - ()
Sea Level Pressure  
Sea Level Pressure 30.12 in    
Wind  
Wind Speed 2 mph ()    
Max Wind Speed 5 mph    
Max Gust Speed -    
Visibility 2.1 miles    
Events Fog    
Averages and records for this station are not official NWS values.
T = Trace of Precipitation, MM = Missing Value Source: Averaged Metar Reports

Daily Weather History Graph

Daily Weather History Graph

Search for Another Location

Airport:

Trip Planner

Search our weather history database for the weather conditions in past years. The results will help you decide how hot, cold, wet, or windy it might be!

Date:

Astronomy

Jan. 11, 2013 Rise Set
Actual Time 6:36 AM EET 4:10 PM EET
Civil Twilight 6:06 AM EET 4:40 PM EET
Nautical Twilight 5:32 AM EET 5:13 PM EET
Astronomical Twilight 5:00 AM EET 5:46 PM EET
Moon 5:51 AM EET (1/11) 4:02 PM EET (1/11)
Length of Visible Light 10h 33m
Length of Day
9h 33m
Waning Crescent, 0% of the Moon is Illuminated
Jan 11
Waning Crescent
Jan 11
New
Jan 19
First Quarter
Jan 27
Full
Feb 3
Last Quarter

Hourly Weather History & Observations

Time (EET) Temp. Windchill Dew Point Humidity Pressure Visibility Wind Dir Wind Speed Gust Speed Precip Events Conditions
12:20 AM -18.4 °F - -22.0 °F 84% 30.01 in 3.7 mi Calm Calm - N/A   Unknown
12:50 AM -20.2 °F - -25.6 °F 76% 30.01 in 4.3 mi Variable 2.3 mph - N/A   Unknown
1:20 AM -16.6 °F - -20.2 °F 84% 30.04 in 3.7 mi Variable 1.2 mph - N/A   Unknown
1:50 AM -20.2 °F - -23.8 °F 83% 30.04 in 3.7 mi Variable 2.3 mph - N/A   Unknown
2:00 AM -20 °F - -20 °F 100%  in 4 mi East 2.3 mph - -   Mist
2:20 AM -14.8 °F - -18.4 °F 84% 30.04 in 1.0 mi Variable 1.2 mph - N/A   Mist
2:50 AM -20.2 °F - -25.6 °F 76% 30.04 in 1.0 mi Variable 1.2 mph - N/A   Mist
3:20 AM -20.2 °F - -23.8 °F 83% 30.04 in 0.4 mi Variable 1.2 mph - N/A Fog Light Freezing Fog
3:50 AM -18.4 °F - -20.2 °F 91% 30.04 in 0.4 mi SW 2.3 mph - N/A Fog Light Freezing Fog
4:20 AM -18.4 °F - -22.0 °F 84% 30.04 in 0.3 mi Calm Calm - N/A Fog Light Freezing Fog
4:50 AM -18.4 °F - -20.2 °F 91% 30.04 in 0.2 mi Variable 1.2 mph - N/A Fog Light Freezing Fog
5:20 AM -23.8 °F - -29.2 °F 76% 30.06 in 0.2 mi Variable 2.3 mph - N/A Fog Light Freezing Fog
5:50 AM -22.0 °F - -27.4 °F 76% 30.06 in 0.2 mi West 1.2 mph - N/A Fog Light Freezing Fog
6:20 AM -23.8 °F -35.0 °F -29.2 °F 76% 30.09 in 0.2 mi SE 3.5 mph - N/A Fog Light Freezing Fog
6:50 AM -18.4 °F - -23.8 °F 76% 30.09 in 0.2 mi Calm Calm - N/A Fog Light Freezing Fog
7:20 AM -22.0 °F - -25.6 °F 83% 30.12 in 0.2 mi Variable 2.3 mph - N/A Fog Light Freezing Fog
7:50 AM -22.0 °F - -27.4 °F 76% 30.12 in 0.2 mi East 2.3 mph - N/A Fog Light Freezing Fog
8:20 AM -20.2 °F - -23.8 °F 83% 30.12 in 0.2 mi Variable 1.2 mph - N/A Fog Light Freezing Fog
8:50 AM -18.4 °F - -22.0 °F 84% 30.12 in - Variable 1.2 mph - N/A Fog Light Freezing Fog
9:20 AM -14.8 °F - -18.4 °F 84% 30.12 in 0.2 mi Variable 1.2 mph - N/A Fog Light Freezing Fog
9:50 AM -14.8 °F - -18.4 °F 84% 30.12 in 0.7 mi West 2.3 mph - N/A   Partly Cloudy
10:20 AM -11.2 °F - -14.8 °F 84% 30.12 in 0.7 mi Variable 1.2 mph - N/A   Partly Cloudy
10:50 AM -9.4 °F - -13.0 °F 84% 30.12 in 1.0 mi Variable 2.3 mph - N/A   Partly Cloudy
11:20 AM -9.4 °F -18.6 °F -13.0 °F 84% 30.12 in 1.1 mi NE 3.5 mph - N/A   Partly Cloudy
11:50 AM -9.4 °F -18.6 °F -13.0 °F 84% 30.12 in 1.6 mi East 3.5 mph - N/A   Partly Cloudy
12:20 PM -5.8 °F - -9.4 °F 84% 30.12 in 1.6 mi Variable 1.2 mph - N/A   Partly Cloudy
12:50 PM -4.0 °F - -7.6 °F 85% 30.12 in 1.6 mi Variable 1.2 mph - N/A   Partly Cloudy
1:20 PM -4.0 °F - -7.6 °F 85% 30.12 in 1.6 mi Variable 2.3 mph - N/A   Partly Cloudy
1:50 PM -5.8 °F -14.5 °F -7.6 °F 92% 30.12 in - ENE 3.5 mph - N/A   Partly Cloudy
2:00 PM -5 °F - -5 °F 97%  in 2 mi ENE 3.5 mph - -   Mist
2:20 PM -4.0 °F - -7.6 °F 85% 30.12 in 3.7 mi Variable 1.2 mph - N/A   Partly Cloudy
2:50 PM -5.8 °F - -9.4 °F 84% 30.12 in 3.7 mi Variable 2.3 mph - N/A   Partly Cloudy
3:20 PM -4.0 °F - -5.8 °F 92% 30.12 in 3.7 mi Variable 2.3 mph - N/A   Partly Cloudy
3:50 PM -4.0 °F -14.6 °F -7.6 °F 85% 30.15 in 3.7 mi WNW 4.6 mph - N/A   Partly Cloudy
4:20 PM -5.8 °F - -9.4 °F 84% 30.15 in 3.7 mi Variable 1.2 mph - N/A   Partly Cloudy
4:50 PM -5.8 °F - -9.4 °F 84% 30.15 in 3.7 mi Variable 1.2 mph - N/A   Partly Cloudy
5:20 PM -9.4 °F -18.6 °F -11.2 °F 92% 30.15 in 3.7 mi East 3.5 mph - N/A   Partly Cloudy
5:50 PM -9.4 °F - -13.0 °F 84% 30.15 in 3.7 mi Variable 2.3 mph - N/A   Partly Cloudy
6:20 PM -9.4 °F - -13.0 °F 84% 30.15 in 3.7 mi Variable 2.3 mph - N/A   Partly Cloudy
6:50 PM -9.4 °F - -11.2 °F 92% 30.15 in 3.7 mi Variable 1.2 mph - N/A   Partly Cloudy
7:20 PM -9.4 °F -18.6 °F -13.0 °F 84% 30.18 in 3.7 mi Variable 3.5 mph - N/A   Partly Cloudy
7:50 PM -9.4 °F - -13.0 °F 84% 30.18 in 2.8 mi Variable 1.2 mph - N/A   Scattered Clouds
8:00 PM -9 °F - -9 °F 98%  in 3 mi WSW 1.2 mph - -   Mist
8:20 PM -7.6 °F - -11.2 °F 84% 30.18 in 2.8 mi Calm Calm - N/A   Scattered Clouds
8:50 PM -7.6 °F - -11.2 °F 84% 30.18 in 2.8 mi Variable 2.3 mph - N/A   Scattered Clouds
9:20 PM -9.4 °F - -11.2 °F 92% 30.18 in 2.8 mi Variable 1.2 mph - N/A   Scattered Clouds
9:50 PM -9.4 °F - -11.2 °F 92% 30.21 in 2.8 mi Variable 1.2 mph - N/A   Scattered Clouds
10:20 PM -9.4 °F - -13.0 °F 84% 30.21 in 2.8 mi Variable 1.2 mph - N/A   Scattered Clouds
10:50 PM -13.0 °F - -16.6 °F 84% 30.21 in 2.8 mi Variable 1.2 mph - N/A   Scattered Clouds
11:20 PM -11.2 °F - -14.8 °F 84% 30.21 in 2.8 mi Variable 1.2 mph - N/A   Scattered Clouds
11:50 PM -9.4 °F - -13.0 °F 84% 30.21 in 2.5 mi Variable 2.3 mph - N/A   Scattered Clouds